| time (UTC) | temp F | wind direction | speed MPH | gust MPH | rain 1hr in | rain 24hr in | rain mn in | humidity % | barometer mb |
| 20260901042354 | 65 | 227 | 3.0 | 7.0 | 0.00 | 0.00 | 0.00 | 67 | 1017.4 |
| 20260901041954 | 65 | 295 | 2.0 | 7.0 | 0.00 | 0.00 | 0.00 | 66 | 1017.4 |
| 20260901041553 | 66 | 290 | 4.0 | 9.0 | 0.00 | 0.00 | 0.00 | 66 | 1017.3 |
| 20260901041154 | 66 | 309 | 5.0 | 7.0 | 0.00 | 0.00 | 0.00 | 66 | 1017.3 |
| 20260901040755 | 66 | 236 | 5.0 | 7.0 | 0.00 | 0.00 | 0.00 | 66 | 1017.3 |
| 20260901040352 | 66 | 289 | 7.0 | 9.0 | 0.00 | 0.00 | 0.00 | 65 | 1017.3 |
| 20260901035953 | 66 | 262 | 4.0 | 7.0 | 0.00 | 0.00 | 0.00 | 65 | 1017.2 |
| 20260901035553 | 67 | 272 | 1.0 | 7.0 | 0.00 | 0.00 | 0.00 | 64 | 1017.2 |
| 20260901035153 | 67 | 301 | 4.0 | 7.0 | 0.00 | 0.00 | 0.00 | 64 | 1017.1 |
| 20260901034349 | 67 | 274 | 5.0 | 6.0 | 0.00 | 0.00 | 0.00 | 63 | 1017.0 |
| 20260901033949 | 67 | 261 | 3.0 | 11.0 | 0.00 | 0.00 | 0.00 | 63 | 1016.9 |
| 20260901033549 | 68 | 315 | 4.0 | 9.0 | 0.00 | 0.00 | 0.00 | 63 | 1017.0 |
| 20260901032749 | 68 | 327 | 3.0 | 7.0 | 0.00 | 0.00 | 0.00 | 62 | 1016.7 |
| 20260901032349 | 69 | 285 | 6.0 | 7.0 | 0.00 | 0.00 | 0.00 | 62 | 1016.7 |
| 20260901031148 | 69 | 342 | 9.0 | 9.0 | 0.00 | 0.00 | 0.00 | 59 | 1016.5 |
| 20260901030748 | 70 | 301 | 4.0 | 7.0 | 0.00 | 0.00 | 0.00 | 59 | 1016.5 |
| 20260901030347 | 70 | 274 | 4.0 | 9.0 | 0.00 | 0.00 | 0.00 | 59 | 1016.5 |
| 20260901025947 | 70 | 289 | 5.0 | 8.0 | 0.00 | 0.00 | 0.00 | 58 | 1016.2 |
| 20260901025148 | 71 | 236 | 9.0 | 10.0 | 0.00 | 0.00 | 0.00 | 58 | 1016.3 |
| 20260901024747 | 72 | 11 | 4.0 | 8.0 | 0.00 | 0.00 | 0.00 | 57 | 1016.3 |
| 20260901024347 | 72 | 315 | 3.0 | 7.0 | 0.00 | 0.00 | 0.00 | 56 | 1016.2 |
| 20260901023947 | 72 | 292 | 4.0 | 12.0 | 0.00 | 0.00 | 0.00 | 55 | 1016.1 |
| 20260901023546 | 73 | 240 | 6.0 | 8.0 | 0.00 | 0.00 | 0.00 | 55 | 1016.2 |
| 20260901023147 | 73 | 270 | 3.0 | 8.0 | 0.00 | 0.00 | 0.00 | 55 | 1016.3 |
| 20260901022746 | 74 | 9 | 4.0 | 10.0 | 0.00 | 0.00 | 0.00 | 54 | 1016.2 |
| 20260901022347 | 74 | 216 | 3.0 | 8.0 | 0.00 | 0.00 | 0.00 | 54 | 1016.0 |
| 20260901021546 | 75 | 321 | 7.0 | 9.0 | 0.00 | 0.00 | 0.00 | 53 | 1016.1 |
| 20260901020745 | 76 | 211 | 5.0 | 6.0 | 0.00 | 0.00 | 0.00 | 51 | 1016.1 |
| 20260901020345 | 77 | 257 | 4.0 | 9.0 | 0.00 | 0.00 | 0.00 | 51 | 1016.1 |
| 20260901015946 | 78 | 227 | 7.0 | 10.0 | 0.00 | 0.00 | 0.00 | 50 | 1016.1 |
| 20260901015545 | 79 | 270 | 7.0 | 11.0 | 0.00 | 0.00 | 0.00 | 48 | 1016.0 |
| 20260901015145 | 79 | 182 | 3.0 | 10.0 | 0.00 | 0.00 | 0.00 | 49 | 1016.0 |
| 20260901014745 | 80 | 200 | 9.0 | 11.0 | 0.00 | 0.00 | 0.00 | 49 | 1016.0 |
| 20260901014345 | 80 | 249 | 7.0 | 10.0 | 0.00 | 0.00 | 0.00 | 49 | 1016.0 |
| 20260901013945 | 79 | 280 | 3.0 | 12.0 | 0.00 | 0.00 | 0.00 | 49 | 1015.9 |
| 20260901013544 | 79 | 247 | 4.0 | 10.0 | 0.00 | 0.00 | 0.00 | 49 | 1015.9 |
| 20260901013144 | 79 | 310 | 5.0 | 7.0 | 0.00 | 0.00 | 0.00 | 49 | 1015.8 |
| 20260901012745 | 79 | 260 | 5.0 | 7.0 | 0.00 | 0.00 | 0.00 | 49 | 1015.9 |
| 20260901012344 | 79 | 229 | 3.0 | 9.0 | 0.00 | 0.00 | 0.00 | 49 | 1015.8 |
| 20260901011944 | 79 | 230 | 6.0 | 8.0 | 0.00 | 0.00 | 0.00 | 49 | 1015.8 |
| 20260901011543 | 79 | 307 | 5.0 | 8.0 | 0.00 | 0.00 | 0.00 | 49 | 1015.7 |
| 20260901011144 | 79 | 320 | 6.0 | 8.0 | 0.00 | 0.00 | 0.00 | 49 | 1015.7 |
| 20260901010744 | 79 | 13 | 3.0 | 8.0 | 0.00 | 0.00 | 0.00 | 49 | 1015.6 |
| 20260901010344 | 79 | 227 | 4.0 | 7.0 | 0.00 | 0.00 | 0.00 | 49 | 1015.6 |
| 20260901005943 | 79 | 210 | 7.0 | 7.0 | 0.00 | 0.00 | 0.00 | 49 | 1015.6 |
| 20260901005543 | 79 | 215 | 5.0 | 7.0 | 0.00 | 0.00 | 0.00 | 49 | 1015.6 |
| 20260901005143 | 79 | 331 | 7.0 | 7.0 | 0.00 | 0.00 | 0.00 | 48 | 1015.5 |
| 20260901004743 | 79 | 238 | 4.0 | 8.0 | 0.00 | 0.00 | 0.00 | 48 | 1015.6 |
| 20260901004343 | 79 | 225 | 3.0 | 7.0 | 0.00 | 0.00 | 0.00 | 48 | 1015.7 |
| 20260901003943 | 79 | 227 | 3.0 | 7.0 | 0.00 | 0.00 | 0.00 | 48 | 1015.7 |
| 20260901003543 | 79 | 227 | 6.0 | 9.0 | 0.00 | 0.00 | 0.00 | 48 | 1015.7 |
| 20260901002742 | 79 | 230 | 4.0 | 10.0 | 0.00 | 0.00 | 0.00 | 47 | 1015.8 |
| 20260901002342 | 79 | 236 | 5.0 | 7.0 | 0.00 | 0.00 | 0.00 | 48 | 1015.8 |
| 20260901001941 | 79 | 301 | 4.0 | 9.0 | 0.00 | 0.00 | 0.00 | 47 | 1015.8 |
| 20260901001541 | 79 | 290 | 3.0 | 12.0 | 0.00 | 0.00 | 0.00 | 47 | 1015.7 |
| 20260901001142 | 79 | 227 | 9.0 | 9.0 | 0.00 | 0.00 | 0.00 | 47 | 1015.7 |
| 20260901000741 | 79 | 310 | 6.0 | 7.0 | 0.00 | 0.00 | 0.00 | 47 | 1015.7 |
| 20260901000343 | 79 | 234 | 3.0 | 6.0 | 0.00 | 0.00 | 0.00 | 47 | 1015.6 |
| 20260831235941 | 79 | 240 | 4.0 | 6.0 | 0.00 | 0.00 | 0.00 | 47 | 1015.7 |
| 20260831235541 | 79 | 207 | 4.0 | 9.0 | 0.00 | 0.00 | 0.00 | 47 | 1015.7 |
| 20260831235140 | 79 | 237 | 6.0 | 12.0 | 0.00 | 0.00 | 0.00 | 48 | 1015.7 |
| 20260831234741 | 79 | 227 | 6.0 | 6.0 | 0.00 | 0.00 | 0.00 | 48 | 1015.8 |
| 20260831234341 | 79 | 280 | 4.0 | 8.0 | 0.00 | 0.00 | 0.00 | 48 | 1015.7 |
| 20260831233941 | 79 | 245 | 4.0 | 9.0 | 0.00 | 0.00 | 0.00 | 47 | 1015.8 |
| 20260831233137 | 79 | 355 | 3.0 | 7.0 | 0.00 | 0.00 | 0.00 | 48 | 1015.8 |
| 20260831232737 | 79 | 231 | 3.0 | 14.0 | 0.00 | 0.00 | 0.00 | 48 | 1015.8 |
| 20260831232336 | 79 | 218 | 5.0 | 10.0 | 0.00 | 0.00 | 0.00 | 48 | 1015.9 |
| 20260831231937 | 79 | 344 | 6.0 | 8.0 | 0.00 | 0.00 | 0.00 | 48 | 1015.9 |
| 20260831231537 | 78 | 215 | 7.0 | 9.0 | 0.00 | 0.00 | 0.00 | 48 | 1015.9 |
| 20260831231137 | 78 | 241 | 2.0 | 12.0 | 0.00 | 0.00 | 0.00 | 48 | 1016.1 |
| 20260831230737 | 78 | 346 | 5.0 | 10.0 | 0.00 | 0.00 | 0.00 | 49 | 1016.0 |
| 20260831225936 | 78 | 220 | 5.0 | 18.0 | 0.00 | 0.00 | 0.00 | 49 | 1016.1 |
| 20260831225535 | 78 | 184 | 3.0 | 6.0 | 0.00 | 0.00 | 0.00 | 48 | 1016.1 |
| 20260831225135 | 78 | 229 | 7.0 | 10.0 | 0.00 | 0.00 | 0.00 | 48 | 1016.2 |
| 20260831224335 | 78 | 297 | 4.0 | 11.0 | 0.00 | 0.00 | 0.00 | 49 | 1016.2 |
| 20260831223936 | 78 | 220 | 11.0 | 11.0 | 0.00 | 0.00 | 0.00 | 49 | 1016.2 |
| 20260831223535 | 78 | 225 | 9.0 | 10.0 | 0.00 | 0.00 | 0.00 | 49 | 1016.2 |
| 20260831223135 | 78 | 227 | 8.0 | 8.0 | 0.00 | 0.00 | 0.00 | 49 | 1016.2 |
| 20260831222735 | 78 | 310 | 4.0 | 7.0 | 0.00 | 0.00 | 0.00 | 50 | 1016.3 |
| 20260831222334 | 78 | 325 | 6.0 | 9.0 | 0.00 | 0.00 | 0.00 | 50 | 1016.4 |
| 20260831221935 | 78 | 260 | 5.0 | 10.0 | 0.00 | 0.00 | 0.00 | 50 | 1016.4 |
| 20260831221535 | 78 | 299 | 4.0 | 9.0 | 0.00 | 0.00 | 0.00 | 50 | 1016.4 |
| 20260831221135 | 78 | 216 | 7.0 | 10.0 | 0.00 | 0.00 | 0.00 | 50 | 1016.3 |
| 20260831220734 | 78 | 231 | 6.0 | 10.0 | 0.00 | 0.00 | 0.00 | 50 | 1016.4 |
| 20260831220334 | 78 | 239 | 4.0 | 11.0 | 0.00 | 0.00 | 0.00 | 50 | 1016.5 |
| 20260831215534 | 77 | 45 | 3.0 | 6.0 | 0.00 | 0.00 | 0.00 | 50 | 1016.6 |
| 20260831214734 | 77 | 240 | 6.0 | 11.0 | 0.00 | 0.00 | 0.00 | 50 | 1016.8 |
| 20260831213933 | 77 | 229 | 12.0 | 12.0 | 0.00 | 0.00 | 0.00 | 51 | 1016.9 |
| 20260831213133 | 77 | 261 | 5.0 | 13.0 | 0.00 | 0.00 | 0.00 | 51 | 1016.8 |
| 20260831212733 | 77 | 321 | 5.0 | 10.0 | 0.00 | 0.00 | 0.00 | 52 | 1016.9 |
| 20260831212333 | 76 | 12 | 4.0 | 11.0 | 0.00 | 0.00 | 0.00 | 51 | 1017.0 |
| 20260831211932 | 76 | 230 | 4.0 | 7.0 | 0.00 | 0.00 | 0.00 | 53 | 1017.0 |
| 20260831211533 | 76 | 232 | 6.0 | 8.0 | 0.00 | 0.00 | 0.00 | 52 | 1017.1 |
| 20260831211132 | 76 | 256 | 6.0 | 8.0 | 0.00 | 0.00 | 0.00 | 53 | 1017.1 |
| 20260831210732 | 76 | 345 | 4.0 | 11.0 | 0.00 | 0.00 | 0.00 | 52 | 1017.1 |
| 20260831210332 | 76 | 231 | 1.0 | 8.0 | 0.00 | 0.00 | 0.00 | 52 | 1017.0 |
| 20260831205932 | 76 | 220 | 5.0 | 10.0 | 0.00 | 0.00 | 0.00 | 51 | 1017.1 |
| 20260831205532 | 76 | 290 | 4.0 | 9.0 | 0.00 | 0.00 | 0.00 | 51 | 1017.0 |
| 20260831205132 | 76 | 281 | 3.0 | 7.0 | 0.00 | 0.00 | 0.00 | 51 | 1017.0 |
| 20260831204731 | 75 | 333 | 7.0 | 7.0 | 0.00 | 0.00 | 0.00 | 52 | 1017.1 |
| 20260831204331 | 75 | 281 | 6.0 | 10.0 | 0.00 | 0.00 | 0.00 | 52 | 1017.1 |
| 20260831203931 | 75 | 217 | 4.0 | 7.0 | 0.00 | 0.00 | 0.00 | 52 | 1017.1 |
| 20260831203531 | 75 | 321 | 6.0 | 10.0 | 0.00 | 0.00 | 0.00 | 52 | 1017.1 |
| 20260831203131 | 75 | 252 | 5.0 | 13.0 | 0.00 | 0.00 | 0.00 | 53 | 1017.2 |
| 20260831202847 | 74 | 263 | 8.0 | 10.0 | 0.00 | 0.00 | 0.00 | 54 | 1017.3 |
| 20260831202731 | 74 | 263 | 8.0 | 10.0 | 0.00 | 0.00 | 0.00 | 54 | 1017.3 |
| 20260831202331 | 74 | 229 | 3.0 | 4.0 | 0.00 | 0.00 | 0.00 | 53 | 1017.2 |
| 20260831201931 | 74 | 278 | 2.0 | 5.0 | 0.00 | 0.00 | 0.00 | 54 | 1017.3 |
| 20260831201530 | 74 | 326 | 5.0 | 14.0 | 0.00 | 0.00 | 0.00 | 54 | 1017.2 |
| 20260831201130 | 74 | 213 | 9.0 | 9.0 | 0.00 | 0.00 | 0.00 | 54 | 1017.3 |
| 20260831200730 | 74 | 299 | 3.0 | 10.0 | 0.00 | 0.00 | 0.00 | 54 | 1017.3 |
| 20260831200330 | 73 | 37 | 2.0 | 8.0 | 0.00 | 0.00 | 0.00 | 55 | 1017.3 |
| 20260831195930 | 73 | 275 | 4.0 | 13.0 | 0.00 | 0.00 | 0.00 | 54 | 1017.4 |
| 20260831195530 | 73 | 238 | 9.0 | 10.0 | 0.00 | 0.00 | 0.00 | 57 | 1017.5 |
| 20260831195130 | 73 | 245 | 4.0 | 10.0 | 0.00 | 0.00 | 0.00 | 56 | 1017.4 |
| 20260831194729 | 73 | 217 | 3.0 | 7.0 | 0.00 | 0.00 | 0.00 | 57 | 1017.4 |
| 20260831194329 | 72 | 325 | 3.0 | 8.0 | 0.00 | 0.00 | 0.00 | 57 | 1017.6 |
| 20260831193529 | 72 | 263 | 6.0 | 10.0 | 0.00 | 0.00 | 0.00 | 57 | 1017.6 |
| 20260831193129 | 72 | 255 | 7.0 | 10.0 | 0.00 | 0.00 | 0.00 | 58 | 1017.7 |
| 20260831192728 | 72 | 270 | 4.0 | 7.0 | 0.00 | 0.00 | 0.00 | 58 | 1017.7 |
| 20260831192329 | 72 | 276 | 1.0 | 9.0 | 0.00 | 0.00 | 0.00 | 58 | 1017.5 |
| 20260831191528 | 71 | 298 | 3.0 | 10.0 | 0.00 | 0.00 | 0.00 | 58 | 1017.7 |
| 20260831190328 | 70 | 182 | 6.0 | 8.0 | 0.00 | 0.00 | 0.00 | 60 | 1017.8 |
| 20260831185928 | 70 | 235 | 9.0 | 9.0 | 0.00 | 0.00 | 0.00 | 61 | 1017.8 |
| 20260831185528 | 70 | 303 | 9.0 | 10.0 | 0.00 | 0.00 | 0.00 | 62 | 1017.9 |
| 20260831185128 | 70 | 232 | 4.0 | 8.0 | 0.00 | 0.00 | 0.00 | 62 | 1017.9 |
| 20260831184727 | 70 | 229 | 5.0 | 9.0 | 0.00 | 0.00 | 0.00 | 63 | 1017.9 |
| 20260831184327 | 69 | 333 | 2.0 | 8.0 | 0.00 | 0.00 | 0.00 | 63 | 1017.9 |
| 20260831183927 | 69 | 312 | 5.0 | 9.0 | 0.00 | 0.00 | 0.00 | 63 | 1017.8 |
| 20260831183527 | 69 | 326 | 9.0 | 9.0 | 0.00 | 0.00 | 0.00 | 63 | 1017.9 |
| 20260831183126 | 69 | 306 | 3.0 | 9.0 | 0.00 | 0.00 | 0.00 | 63 | 1018.0 |
| 20260831182727 | 69 | 328 | 9.0 | 13.0 | 0.00 | 0.00 | 0.00 | 65 | 1017.9 |
| 20260831181926 | 68 | 324 | 6.0 | 9.0 | 0.00 | 0.00 | 0.00 | 65 | 1017.9 |
| 20260831181526 | 68 | 326 | 9.0 | 9.0 | 0.00 | 0.00 | 0.00 | 66 | 1017.9 |
| 20260831181126 | 68 | 326 | 3.0 | 5.0 | 0.00 | 0.00 | 0.00 | 67 | 1017.9 |
| 20260831180725 | 68 | 303 | 5.0 | 7.0 | 0.00 | 0.00 | 0.00 | 67 | 1017.8 |
| 20260831180326 | 68 | 281 | 3.0 | 5.0 | 0.00 | 0.00 | 0.00 | 68 | 1017.8 |
| 20260831175926 | 67 | 172 | 2.0 | 7.0 | 0.00 | 0.00 | 0.00 | 68 | 1017.8 |
| 20260831175525 | 67 | 277 | 5.0 | 7.0 | 0.00 | 0.00 | 0.00 | 69 | 1017.9 |
| 20260831175125 | 67 | 256 | 4.0 | 12.0 | 0.00 | 0.00 | 0.00 | 69 | 1017.8 |
| 20260831174725 | 67 | 274 | 6.0 | 9.0 | 0.00 | 0.00 | 0.00 | 69 | 1017.8 |
| 20260831174325 | 67 | 330 | 6.0 | 7.0 | 0.00 | 0.00 | 0.00 | 70 | 1017.8 |
| 20260831173924 | 66 | 263 | 5.0 | 10.0 | 0.00 | 0.00 | 0.00 | 70 | 1017.8 |
| 20260831173125 | 66 | 312 | 6.0 | 8.0 | 0.00 | 0.00 | 0.00 | 71 | 1017.8 |
| 20260831172725 | 66 | 225 | 3.0 | 9.0 | 0.00 | 0.00 | 0.00 | 71 | 1017.8 |
| 20260831171924 | 65 | 247 | 6.0 | 6.0 | 0.00 | 0.00 | 0.00 | 72 | 1017.6 |
| 20260831171524 | 65 | 244 | 3.0 | 9.0 | 0.00 | 0.00 | 0.00 | 72 | 1017.6 |
| 20260831171124 | 65 | 339 | 4.0 | 6.0 | 0.00 | 0.00 | 0.00 | 72 | 1017.5 |
| 20260831170724 | 65 | 241 | 3.0 | 9.0 | 0.00 | 0.00 | 0.00 | 73 | 1017.6 |
| 20260831170323 | 65 | 265 | 6.0 | 8.0 | 0.00 | 0.00 | 0.00 | 73 | 1017.5 |
| 20260831165924 | 65 | 261 | 6.0 | 8.0 | 0.00 | 0.00 | 0.00 | 73 | 1017.5 |
| 20260831164324 | 64 | 337 | 4.0 | 8.0 | 0.00 | 0.00 | 0.00 | 75 | 1017.3 |
| 20260831163922 | 64 | 317 | 8.0 | 8.0 | 0.00 | 0.00 | 0.00 | 75 | 1017.3 |
| 20260831163522 | 64 | 220 | 3.0 | 8.0 | 0.00 | 0.00 | 0.00 | 75 | 1017.4 |
| 20260831162723 | 63 | 344 | 8.0 | 8.0 | 0.00 | 0.00 | 0.00 | 76 | 1017.4 |
| 20260831162322 | 63 | 321 | 3.0 | 8.0 | 0.00 | 0.00 | 0.00 | 76 | 1017.3 |
| 20260831161922 | 63 | 312 | 2.0 | 6.0 | 0.00 | 0.00 | 0.00 | 76 | 1017.4 |
| 20260831161521 | 63 | 346 | 3.0 | 4.0 | 0.00 | 0.00 | 0.00 | 76 | 1017.3 |
| 20260831161122 | 63 | 353 | 6.0 | 8.0 | 0.00 | 0.00 | 0.00 | 76 | 1017.3 |
| 20260831160722 | 63 | 0 | 4.0 | 8.0 | 0.00 | 0.00 | 0.00 | 76 | 1017.3 |
| 20260831160321 | 63 | 342 | 6.0 | 6.0 | 0.00 | 0.00 | 0.00 | 77 | 1017.3 |
| 20260831155921 | 63 | 333 | 3.0 | 6.0 | 0.00 | 0.00 | 0.00 | 77 | 1017.3 |
| 20260831155521 | 62 | 348 | 4.0 | 8.0 | 0.00 | 0.00 | 0.00 | 77 | 1017.2 |
| 20260831155120 | 62 | 315 | 4.0 | 7.0 | 0.00 | 0.00 | 0.00 | 77 | 1017.3 |
| 20260831154721 | 62 | 290 | 2.0 | 7.0 | 0.00 | 0.00 | 0.00 | 77 | 1017.2 |
| 20260831153920 | 62 | 324 | 4.0 | 6.0 | 0.00 | 0.00 | 0.00 | 78 | 1017.2 |
| 20260831153120 | 62 | 335 | 5.0 | 8.0 | 0.00 | 0.00 | 0.00 | 78 | 1017.2 |
| 20260831151120 | 61 | 333 | 5.0 | 7.0 | 0.00 | 0.00 | 0.00 | 79 | 1017.1 |
| 20260831150720 | 61 | 265 | 3.0 | 7.0 | 0.00 | 0.00 | 0.00 | 79 | 1017.1 |
| 20260831150320 | 61 | 299 | 3.0 | 9.0 | 0.00 | 0.00 | 0.00 | 79 | 1016.9 |
| 20260831145519 | 61 | 332 | 4.0 | 5.0 | 0.00 | 0.00 | 0.00 | 78 | 1016.9 |
| 20260831145118 | 61 | 315 | 1.0 | 9.0 | 0.00 | 0.00 | 0.00 | 79 | 1016.8 |
| 20260831144719 | 61 | 289 | 4.0 | 6.0 | 0.00 | 0.00 | 0.00 | 79 | 1016.8 |
| 20260831143518 | 61 | 242 | 4.0 | 7.0 | 0.00 | 0.00 | 0.00 | 79 | 1016.7 |
| 20260831142718 | 61 | 312 | 5.0 | 6.0 | 0.00 | 0.00 | 0.00 | 79 | 1016.5 |
| 20260831142317 | 61 | 344 | 4.0 | 7.0 | 0.00 | 0.00 | 0.00 | 79 | 1016.5 |
| 20260831141918 | 61 | 348 | 2.0 | 5.0 | 0.00 | 0.00 | 0.00 | 79 | 1016.4 |
| 20260831141518 | 61 | 315 | 4.0 | 6.0 | 0.00 | 0.00 | 0.00 | 80 | 1016.4 |
| 20260831140714 | 61 | 261 | 3.0 | 7.0 | 0.00 | 0.00 | 0.00 | 79 | 1016.3 |
| 20260831140314 | 61 | 353 | 3.0 | 4.0 | 0.00 | 0.00 | 0.00 | 79 | 1016.3 |
| 20260831135914 | 61 | 317 | 2.0 | 7.0 | 0.00 | 0.00 | 0.00 | 79 | 1016.2 |
| 20260831135514 | 61 | 355 | 4.0 | 5.0 | 0.00 | 0.00 | 0.00 | 79 | 1016.1 |
| 20260831135113 | 61 | 230 | 3.0 | 7.0 | 0.00 | 0.00 | 0.00 | 79 | 1016.0 |
| 20260831134714 | 61 | 315 | 2.0 | 5.0 | 0.00 | 0.00 | 0.00 | 79 | 1016.0 |
| 20260831134313 | 61 | 294 | 1.0 | 5.0 | 0.00 | 0.00 | 0.00 | 78 | 1015.9 |
| 20260831133913 | 61 | 357 | 1.0 | 5.0 | 0.00 | 0.00 | 0.00 | 78 | 1016.0 |
| 20260831133513 | 61 | 346 | 2.0 | 7.0 | 0.00 | 0.00 | 0.00 | 78 | 1016.0 |
| 20260831133113 | 61 | 213 | 4.0 | 7.0 | 0.00 | 0.00 | 0.00 | 78 | 1016.1 |
| 20260831132713 | 61 | 332 | 2.0 | 7.0 | 0.00 | 0.00 | 0.00 | 78 | 1016.0 |
| 20260831132312 | 61 | 342 | 3.0 | 5.0 | 0.00 | 0.00 | 0.00 | 77 | 1015.9 |
| 20260831131913 | 61 | 270 | 3.0 | 4.0 | 0.00 | 0.00 | 0.00 | 77 | 1016.0 |
| 20260831131512 | 62 | 348 | 4.0 | 4.0 | 0.00 | 0.00 | 0.00 | 77 | 1016.0 |
| 20260831131113 | 62 | 292 | 1.0 | 6.0 | 0.00 | 0.00 | 0.00 | 77 | 1016.0 |
| 20260831130712 | 62 | 9 | 3.0 | 6.0 | 0.00 | 0.00 | 0.00 | 76 | 1015.9 |
| 20260831130312 | 62 | 306 | 2.0 | 7.0 | 0.00 | 0.00 | 0.00 | 76 | 1015.8 |
| 20260831125911 | 62 | 303 | 3.0 | 7.0 | 0.00 | 0.00 | 0.00 | 76 | 1015.8 |
| 20260831125512 | 62 | 0 | 3.0 | 6.0 | 0.00 | 0.00 | 0.00 | 76 | 1015.8 |
| 20260831124712 | 62 | 270 | 3.0 | 6.0 | 0.00 | 0.00 | 0.00 | 76 | 1015.7 |
| 20260831124311 | 62 | 337 | 1.0 | 8.0 | 0.00 | 0.00 | 0.00 | 75 | 1015.8 |
| 20260831123111 | 62 | 2 | 4.0 | 7.0 | 0.00 | 0.00 | 0.00 | 75 | 1015.6 |
| 20260831122711 | 62 | 270 | 2.0 | 7.0 | 0.00 | 0.00 | 0.00 | 74 | 1015.7 |
| 20260831121908 | 62 | 227 | 3.0 | 4.0 | 0.00 | 0.00 | 0.00 | 74 | 1015.6 |
| 20260831121507 | 62 | 315 | 4.0 | 7.0 | 0.00 | 0.00 | 0.00 | 74 | 1015.5 |
| 20260831121107 | 63 | 330 | 3.0 | 5.0 | 0.00 | 0.00 | 0.00 | 74 | 1015.4 |
| 20260831120707 | 63 | 315 | 2.0 | 6.0 | 0.00 | 0.00 | 0.00 | 73 | 1015.5 |
| 20260831120307 | 63 | 328 | 4.0 | 5.0 | 0.00 | 0.00 | 0.00 | 73 | 1015.5 |
| 20260831115907 | 63 | 0 | 3.0 | 4.0 | 0.00 | 0.00 | 0.00 | 73 | 1015.4 |
| 20260831115506 | 63 | 315 | 3.0 | 5.0 | 0.00 | 0.00 | 0.00 | 72 | 1015.5 |
| 20260831115106 | 63 | 346 | 5.0 | 5.0 | 0.00 | 0.00 | 0.00 | 72 | 1015.4 |
| 20260831114706 | 63 | 312 | 2.0 | 4.0 | 0.00 | 0.00 | 0.00 | 72 | 1015.5 |
| 20260831114306 | 63 | 315 | 2.0 | 3.0 | 0.00 | 0.00 | 0.00 | 71 | 1015.5 |
| 20260831113906 | 63 | 229 | 2.0 | 3.0 | 0.00 | 0.00 | 0.00 | 72 | 1015.5 |
| 20260831113506 | 63 | 264 | 1.0 | 2.0 | 0.00 | 0.00 | 0.00 | 71 | 1015.5 |
| 20260831112706 | 63 | 225 | 2.0 | 4.0 | 0.00 | 0.00 | 0.00 | 71 | 1015.5 |
| 20260831112307 | 63 | 357 | 3.0 | 4.0 | 0.00 | 0.00 | 0.00 | 71 | 1015.4 |
| 20260831111905 | 63 | 344 | 2.0 | 2.0 | 0.00 | 0.00 | 0.00 | 70 | 1015.5 |
| 20260831111505 | 63 | 225 | 1.0 | 3.0 | 0.00 | 0.00 | 0.00 | 70 | 1015.4 |
| 20260831111105 | 63 | 288 | 2.0 | 4.0 | 0.00 | 0.00 | 0.00 | 70 | 1015.4 |
| 20260831110705 | 64 | 299 | 2.0 | 5.0 | 0.00 | 0.00 | 0.00 | 70 | 1015.4 |
| 20260831110304 | 64 | 225 | 2.0 | 3.0 | 0.00 | 0.00 | 0.00 | 69 | 1015.4 |
| 20260831105953 | 64 | 270 | 2.0 | 4.0 | 0.00 | 0.00 | 0.00 | 69 | 1015.4 |
| 20260831105905 | 64 | 270 | 2.0 | 4.0 | 0.00 | 0.00 | 0.00 | 69 | 1015.4 |
| 20260831105505 | 64 | 270 | 2.0 | 4.0 | 0.00 | 0.00 | 0.00 | 69 | 1015.3 |
| 20260831105104 | 64 | 274 | 2.0 | 6.0 | 0.00 | 0.00 | 0.00 | 69 | 1015.4 |
| 20260831104704 | 64 | 310 | 3.0 | 4.0 | 0.00 | 0.00 | 0.00 | 68 | 1015.3 |
| 20260831104304 | 64 | 317 | 1.0 | 5.0 | 0.00 | 0.00 | 0.00 | 68 | 1015.3 |
| 20260831103903 | 65 | 319 | 3.0 | 4.0 | 0.00 | 0.00 | 0.00 | 68 | 1015.4 |
| 20260831103100 | 65 | 333 | 2.0 | 6.0 | 0.00 | 0.00 | 0.00 | 67 | 1015.3 |
| 20260831102300 | 65 | 321 | 2.0 | 2.0 | 0.00 | 0.00 | 0.00 | 66 | 1015.3 |
| 20260831101900 | 65 | 315 | 1.0 | 4.0 | 0.00 | 0.00 | 0.00 | 66 | 1015.3 |
| 20260831101500 | 65 | 315 | 3.0 | 4.0 | 0.00 | 0.00 | 0.00 | 66 | 1015.3 |
| 20260831101059 | 66 | 0 | 1.0 | 6.0 | 0.00 | 0.00 | 0.00 | 66 | 1015.3 |
| 20260831100659 | 66 | 333 | 3.0 | 4.0 | 0.00 | 0.00 | 0.00 | 65 | 1015.3 |
| 20260831100259 | 66 | 0 | 2.0 | 4.0 | 0.00 | 0.00 | 0.00 | 65 | 1015.3 |
| 20260831095859 | 66 | 301 | 2.0 | 4.0 | 0.00 | 0.00 | 0.00 | 65 | 1015.3 |
| 20260831095459 | 66 | 292 | 1.0 | 4.0 | 0.00 | 0.00 | 0.00 | 64 | 1015.2 |
| 20260831095059 | 66 | 330 | 2.0 | 4.0 | 0.00 | 0.00 | 0.00 | 64 | 1015.2 |
| 20260831094659 | 66 | 342 | 3.0 | 4.0 | 0.00 | 0.00 | 0.00 | 64 | 1015.2 |
| 20260831093858 | 67 | 0 | 1.0 | 5.0 | 0.00 | 0.00 | 0.00 | 63 | 1015.1 |
| 20260831093458 | 67 | 315 | 0.0 | 4.0 | 0.00 | 0.00 | 0.00 | 63 | 1015.2 |
| 20260831093059 | 67 | 326 | 2.0 | 5.0 | 0.00 | 0.00 | 0.00 | 63 | 1015.1 |
| 20260831092658 | 67 | 295 | 1.0 | 4.0 | 0.00 | 0.00 | 0.00 | 63 | 1015.0 |
| 20260831092258 | 67 | 315 | 2.0 | 4.0 | 0.00 | 0.00 | 0.00 | 63 | 1015.1 |
| 20260831091858 | 67 | 308 | 1.0 | 4.0 | 0.00 | 0.00 | 0.00 | 62 | 1015.0 |
| 20260831091458 | 67 | 225 | 2.0 | 4.0 | 0.00 | 0.00 | 0.00 | 62 | 1015.1 |
| 20260831091057 | 67 | 319 | 2.0 | 4.0 | 0.00 | 0.00 | 0.00 | 62 | 1015.1 |
| 20260831090657 | 67 | 328 | 3.0 | 5.0 | 0.00 | 0.00 | 0.00 | 62 | 1015.0 |
| 20260831090257 | 68 | 357 | 5.0 | 5.0 | 0.00 | 0.00 | 0.00 | 62 | 1015.1 |
| 20260831085858 | 68 | 333 | 0.0 | 4.0 | 0.00 | 0.00 | 0.00 | 62 | 1015.2 |
| 20260831085057 | 68 | 2 | 3.0 | 3.0 | 0.00 | 0.00 | 0.00 | 61 | 1015.1 |
| 20260831084656 | 68 | 315 | 1.0 | 4.0 | 0.00 | 0.00 | 0.00 | 61 | 1015.1 |
| 20260831084256 | 68 | 339 | 1.0 | 2.0 | 0.00 | 0.00 | 0.00 | 59 | 1015.2 |
| 20260831083856 | 68 | 0 | 2.0 | 3.0 | 0.00 | 0.00 | 0.00 | 60 | 1015.1 |
| 20260831083456 | 69 | 45 | 0.0 | 2.0 | 0.00 | 0.00 | 0.00 | 59 | 1015.1 |
| 20260831083056 | 69 | 45 | 2.0 | 3.0 | 0.00 | 0.00 | 0.00 | 59 | 1015.3 |
| 20260831082656 | 69 | 45 | 1.0 | 2.0 | 0.00 | 0.00 | 0.00 | 58 | 1015.3 |
| 20260831082256 | 69 | 45 | 2.0 | 2.0 | 0.00 | 0.00 | 0.00 | 58 | 1015.3 |
| 20260831081856 | 69 | 45 | 1.0 | 3.0 | 0.00 | 0.00 | 0.00 | 58 | 1015.3 |
| 20260831081455 | 69 | 45 | 1.0 | 2.0 | 0.00 | 0.00 | 0.00 | 58 | 1015.3 |
| 20260831081055 | 69 | 11 | 2.0 | 3.0 | 0.00 | 0.00 | 0.00 | 57 | 1015.3 |
| 20260831080655 | 69 | 0 | 2.0 | 2.0 | 0.00 | 0.00 | 0.00 | 57 | 1015.3 |
| 20260831080255 | 69 | 22 | 0.0 | 3.0 | 0.00 | 0.00 | 0.00 | 57 | 1015.3 |
| 20260831075855 | 69 | 45 | 1.0 | 2.0 | 0.00 | 0.00 | 0.00 | 57 | 1015.3 |
| 20260831075455 | 69 | 45 | 1.0 | 2.0 | 0.00 | 0.00 | 0.00 | 56 | 1015.4 |
| 20260831075055 | 69 | 45 | 1.0 | 2.0 | 0.00 | 0.00 | 0.00 | 56 | 1015.4 |
| 20260831074654 | 69 | 45 | 1.0 | 3.0 | 0.00 | 0.00 | 0.00 | 56 | 1015.5 |
| 20260831074254 | 70 | 45 | 3.0 | 3.0 | 0.00 | 0.00 | 0.00 | 57 | 1015.4 |
| 20260831073855 | 70 | 353 | 2.0 | 3.0 | 0.00 | 0.00 | 0.00 | 57 | 1015.4 |
| 20260831073455 | 70 | 2 | 2.0 | 3.0 | 0.00 | 0.00 | 0.00 | 57 | 1015.4 |
| 20260831073054 | 70 | 0 | 1.0 | 2.0 | 0.00 | 0.00 | 0.00 | 57 | 1015.3 |
| 20260831072254 | 70 | 0 | 1.0 | 3.0 | 0.00 | 0.00 | 0.00 | 57 | 1015.4 |
| 20260831071854 | 70 | 0 | 2.0 | 2.0 | 0.00 | 0.00 | 0.00 | 57 | 1015.4 |
| 20260831071453 | 70 | 315 | 2.0 | 3.0 | 0.00 | 0.00 | 0.00 | 56 | 1015.3 |
| 20260831071053 | 70 | 315 | 1.0 | 2.0 | 0.00 | 0.00 | 0.00 | 55 | 1015.3 |
| 20260831070653 | 70 | 279 | 1.0 | 3.0 | 0.00 | 0.00 | 0.00 | 55 | 1015.3 |
| 20260831070253 | 70 | 6 | 3.0 | 3.0 | 0.00 | 0.00 | 0.00 | 55 | 1015.3 |
| 20260831065853 | 70 | 319 | 2.0 | 5.0 | 0.00 | 0.00 | 0.00 | 55 | 1015.2 |
| 20260831065453 | 70 | 357 | 2.0 | 6.0 | 0.00 | 0.00 | 0.00 | 54 | 1015.2 |
| 20260831065053 | 70 | 247 | 0.0 | 4.0 | 0.00 | 0.00 | 0.00 | 54 | 1015.2 |
| 20260831064653 | 70 | 281 | 2.0 | 3.0 | 0.00 | 0.00 | 0.00 | 54 | 1015.2 |
| 20260831064252 | 71 | 283 | 1.0 | 4.0 | 0.00 | 0.00 | 0.00 | 54 | 1015.3 |
| 20260831063852 | 71 | 290 | 3.0 | 4.0 | 0.00 | 0.00 | 0.00 | 54 | 1015.2 |
| 20260831063452 | 71 | 306 | 2.0 | 6.0 | 0.00 | 0.00 | 0.00 | 53 | 1015.2 |
| 20260831063052 | 71 | 279 | 1.0 | 3.0 | 0.00 | 0.00 | 0.00 | 53 | 1015.3 |
| 20260831062652 | 71 | 337 | 1.0 | 4.0 | 0.00 | 0.00 | 0.00 | 53 | 1015.3 |
| 20260831062251 | 71 | 192 | 1.0 | 5.0 | 0.00 | 0.00 | 0.00 | 53 | 1015.3 |
| 20260831061851 | 71 | 225 | 3.0 | 7.0 | 0.00 | 0.00 | 0.00 | 53 | 1015.3 |
| 20260831061451 | 72 | 261 | 3.0 | 5.0 | 0.00 | 0.00 | 0.00 | 52 | 1015.4 |
| 20260831061051 | 72 | 306 | 1.0 | 5.0 | 0.00 | 0.00 | 0.00 | 52 | 1015.4 |
| 20260831060651 | 72 | 297 | 1.0 | 5.0 | 0.00 | 0.00 | 0.00 | 53 | 1015.3 |
| 20260831060251 | 72 | 321 | 4.0 | 6.0 | 0.00 | 0.00 | 0.00 | 51 | 1015.4 |
| 20260831055851 | 72 | 252 | 2.0 | 3.0 | 0.00 | 0.00 | 0.00 | 50 | 1015.4 |
| 20260831055450 | 72 | 180 | 1.0 | 5.0 | 0.00 | 0.00 | 0.00 | 50 | 1015.4 |
| 20260831055051 | 72 | 267 | 1.0 | 5.0 | 0.00 | 0.00 | 0.00 | 50 | 1015.4 |
| 20260831054651 | 73 | 234 | 3.0 | 8.0 | 0.00 | 0.00 | 0.00 | 50 | 1015.5 |
| 20260831054252 | 73 | 321 | 5.0 | 6.0 | 0.00 | 0.00 | 0.00 | 50 | 1015.4 |
| 20260831053450 | 73 | 18 | 2.0 | 7.0 | 0.00 | 0.00 | 0.00 | 48 | 1015.5 |
| 20260831053051 | 74 | 328 | 6.0 | 7.0 | 0.00 | 0.00 | 0.00 | 48 | 1015.5 |
| 20260831052649 | 74 | 292 | 3.0 | 6.0 | 0.00 | 0.00 | 0.00 | 47 | 1015.5 |
| 20260831052250 | 74 | 328 | 4.0 | 7.0 | 0.00 | 0.00 | 0.00 | 47 | 1015.5 |
| 20260831051850 | 74 | 250 | 3.0 | 6.0 | 0.00 | 0.00 | 0.00 | 46 | 1015.5 |
| 20260831051450 | 75 | 306 | 4.0 | 10.0 | 0.00 | 0.00 | 0.00 | 46 | 1015.4 |
| 20260831051049 | 75 | 249 | 5.0 | 6.0 | 0.00 | 0.00 | 0.00 | 46 | 1015.5 |
| 20260831050649 | 75 | 256 | 7.0 | 7.0 | 0.00 | 0.00 | 0.00 | 45 | 1015.5 |
| 20260831050249 | 75 | 234 | 3.0 | 6.0 | 0.00 | 0.00 | 0.00 | 45 | 1015.4 |
| 20260831045849 | 76 | 280 | 3.0 | 8.0 | 0.00 | 0.00 | 0.00 | 45 | 1015.5 |
| 20260831045449 | 76 | 243 | 3.0 | 6.0 | 0.00 | 0.00 | 0.00 | 44 | 1015.5 |
| 20260831045049 | 76 | 312 | 5.0 | 6.0 | 0.00 | 0.00 | 0.00 | 44 | 1015.5 |
| 20260831044649 | 77 | 274 | 2.0 | 6.0 | 0.00 | 0.00 | 0.00 | 44 | 1015.6 |
| 20260831044249 | 77 | 263 | 4.0 | 6.0 | 0.00 | 0.00 | 0.00 | 43 | 1015.5 |
| 20260831043848 | 77 | 318 | 1.0 | 9.0 | 0.00 | 0.00 | 0.00 | 43 | 1015.4 |
| 20260831043448 | 78 | 247 | 6.0 | 6.0 | 0.00 | 0.00 | 0.00 | 43 | 1015.5 |
| 20260831043047 | 78 | 279 | 2.0 | 6.0 | 0.00 | 0.00 | 0.00 | 43 | 1015.5 |
| 20260831042647 | 78 | 297 | 2.0 | 6.0 | 0.00 | 0.00 | 0.00 | 42 | 1015.4 |